This is the latest recevied weather packets stored in our database for station/object WS4FSC-7. If no packets are shown the sender has not sent any weather packets the latest 10 day(s).
| Time | Temp. | Humidity | Pressure | Rain* | Wind** | Luminosity | Snow |
|---|---|---|---|---|---|---|---|
| 1787413096 | 33.89° C | 52% | 1016 hPa | - | - | 794 W/m² | - |
| 1787412917 | 33.89° C | 53% | 1016 hPa | - | - | 790 W/m² | - |
| 1787412738 | 33.33° C | 55% | 1016 hPa | - | - | 776 W/m² | - |
| 1787412557 | 33.33° C | 53% | 1016 hPa | - | - | 761 W/m² | - |
| 1787412376 | 33.33° C | 54% | 1016 hPa | - | - | 749 W/m² | - |
| 1787411476 | 33.33° C | 55% | 1016 hPa | - | - | 716 W/m² | - |
| 1787410576 | 33.33° C | 54% | 1017 hPa | - | - | 676 W/m² | - |
| 1787410395 | 32.78° C | 54% | 1016 hPa | - | - | 667 W/m² | - |
| 1787409677 | 32.78° C | 56% | 1016 hPa | - | - | 642 W/m² | - |
| 1787409496 | 32.78° C | 56% | 1017 hPa | - | - | 640 W/m² | - |
| 1787408596 | 32.78° C | 59% | 1016 hPa | - | - | 590 W/m² | - |
| 1787408236 | 32.78° C | 59% | 1016 hPa | - | - | 574 W/m² | - |
| 1787407878 | 32.22° C | 60% | 1016 hPa | - | - | 576 W/m² | - |
| 1787406975 | 31.67° C | 59% | 1016 hPa | - | - | 563 W/m² | - |
| 1787406796 | 32.22° C | 61% | 1016 hPa | - | - | 382 W/m² | - |
| 1787406076 | 31.67° C | 63% | 1016 hPa | - | - | 480 W/m² | - |
| 1787405898 | 31.67° C | 62% | 1016 hPa | - | - | 463 W/m² | - |
| 1787405357 | 31.67° C | 65% | 1016 hPa | - | - | 416 W/m² | - |
| 1787404456 | 31.11° C | 70% | 1016 hPa | - | - | 363 W/m² | - |
| 1787403929 | 30.56° C | 73% | 1016 hPa | - | - | 287 W/m² | - |
| 1787403929 | 30.56° C | 73% | 1016 hPa | - | - | 304 W/m² | - |
| 1787403557 | 30.56° C | 73% | 1016 hPa | - | - | 304 W/m² | - |
| 1787403375 | 30.56° C | 73% | 1016 hPa | - | - | 287 W/m² | - |
| 1787402836 | 30° C | 76% | 1016 hPa | - | - | 233 W/m² | - |
| 1787402476 | 30° C | 76% | 1016 hPa | - | - | 154 W/m² | - |
* Rain since midnight (hover to see other rain measurements)
** Current wind speed in m/s (hover to see current wind gust speed)